Regional Weather Roundup
Issued by NWS

Home | Current Version | Previous Version | Graphics & Text | Print | Product List | Glossary On
Versions: 1 2 3 4 5 6 7 8 9 10 11 12 13 14 15 16 17 18 19 20 21 22 23 24 25 26 27 28 29 30 31 32 33 34 35 36 37 38 39 40 41 42 43 44 45 46 47 48 49 50
000
ASUS43 KMKX 202010
RWRWI

WISCONSIN REGIONAL WEATHER ROUNDUP
NATIONAL WEATHER SERVICE MILWAUKEE/SULLIVAN WI
300 PM CDT SUN MAY 20 2018

NOTE: "FAIR" INDICATES FEW OR NO CLOUDS BELOW 12,000 FEET WITH NO
SIGNIFICANT WEATHER AND/OR OBSTRUCTIONS TO VISIBILITY.

WIZ001-002-006>008-014>016-023>028-202100-
NORTHWEST WISCONSIN

CITY           SKY/WX    TMP DP  RH WIND       PRES   REMARKS
SUPERIOR ARPT  FAIR      66  32  28 NE6       30.25F
ASHLAND        FAIR      65  29  25 N10       30.25F
HAYWARD        FAIR      70  27  20 VRB5      30.21F
SIREN          FAIR      71  22  16 NE9       30.21F
CUMBERLAND     FAIR      64  25  22 NE7       30.22F
RICE LAKE      FAIR      68  24  19 NE5       30.22F
CHETEK         FAIR      68  31  26 E7        30.21F
LADYSMITH      FAIR      69  29  22 MISG      30.23F
EAU CLAIRE     FAIR      69  30  23 E6G16     30.19F
MENOMONIE      FAIR      69  28  21 NE9       30.20F
NEW RICHMOND   FAIR      69  21  16 E9        30.20F
OSCEOLA        FAIR      69  23  17 E8        30.22F
$$

WIZ003>005-009-010-017-018-202100-
NORTH CENTRAL WISCONSIN

CITY           SKY/WX    TMP DP  RH WIND       PRES   REMARKS
MANITOWISH WTR FAIR      66  27  23 CALM      30.22F
ARBOR VITAE    FAIR      68  28  22 SE8       30.22F
WOODRUFF       FAIR      68  28  22 SE8       30.22F
RHINELANDER    FAIR      68  24  19 VRB6      30.23F
EAGLE RIVER    FAIR      67  24  19 E5        30.21F
LAND O LAKES   FAIR      68  27  21 CALM      30.24F
PHILLIPS       FAIR      67  30  25 NE8       30.21F
TOMAHAWK       FAIR      65  28  24 CALM      30.23F
MEDFORD        FAIR      64  26  24 CALM      30.21F
MERRILL        FAIR      67  29  24 CALM      30.22F
$$

WIZ029-030-035-036-043>047-202100-
CENTRAL WISCONSIN

CITY           SKY/WX    TMP DP  RH WIND       PRES   REMARKS
WAUSAU         FAIR      67  27  22 VRB3      30.20F
MOSINEE        MOSUNNY   66  28  24 N3        30.22F
MARSHFIELD     FAIR      68  37  32 VRB5      30.20F
STEVENS POINT  NOT AVBL
WAUPACA        FAIR      69  40  35 NE6       30.21F
WAUTOMA        PTSUNNY   62  45  53 SE8       30.22F
WISC RAPIDS    FAIR      69  37  30 E7        30.20F
CAMP DOUGLAS   FAIR      57  49  74 SE6       30.22F
$$

WIZ011>013-019>022-031-037>040-048>050-202100-
NORTHEAST WISCONSIN

CITY           SKY/WX    TMP DP  RH WIND       PRES   REMARKS
ANTIGO         FAIR      64  30  27 NE8       30.22F
SHAWANO        FAIR      68  31  25 E7        30.22F
OCONTO         FAIR      58  24  26 E8        30.25S
STURGEON BAY   FAIR      58  36  43 NE7       30.25F
GREEN BAY      FAIR      60  27  28 NE15      30.24F
MANITOWOC      NOT AVBL
APPLETON       MOSUNNY   61  27  27 NE9       30.22F
CLINTONVILLE   FAIR      66  31  26 NE7       30.22F
OSHKOSH        FAIR      59  45  59 NE8       30.22F
$$

WIZ032>034-041-042-053>061-202100-
SOUTHWEST WISCONSIN

CITY           SKY/WX    TMP DP  RH WIND       PRES   REMARKS
LA CROSSE      CLOUDY    56  50  80 E6        30.21F
SPARTA         CLOUDY    56  48  74 E7        30.22F
VIROQUA        CLOUDY    51  49  93 E9        30.21F
BOSCOBEL       CLOUDY    58  49  72 NE8       30.20S
PRAIRIE DU CHI CLOUDY    56  50  78 NE7       30.18F
PLATTEVILLE    CLOUDY    55  53  94 E10       30.19F
$$

WIZ056-057-062-063-064-067-068-202100-
SOUTH CENTRAL WISCONSIN

CITY           SKY/WX    TMP DP  RH WIND       PRES   REMARKS
REEDSBURG      CLOUDY    54  47  76 SE5       30.22F
BARABOO/DELLS  CLOUDY    54  46  73 E7        30.22F
LONE ROCK      CLOUDY    56  51  84 NE12      30.20F
MINERAL POINT  CLOUDY    55  54  94 E9        30.19S
MADISON        CLOUDY    54  48  80 NE10      30.21S
MIDDLETON      CLOUDY    57  51  80 NE9       30.21F
WATERTOWN      CLOUDY    55  51  85 NE10      30.22F
MONROE         CLOUDY    54  50  87 NE9       30.20S
JANESVILLE     NOT AVBL
$$

WIZ051-052-058>065-066-070>072-202100-
SOUTHEAST WISCONSIN

CITY           SKY/WX    TMP DP  RH WIND       PRES   REMARKS
MILWAUKEE      CLOUDY    47  41  80 N14       30.24F
WAUKESHA       CLOUDY    48  45  87 E6        30.25S
MILWAUKEE/TIMM CLOUDY    46  37  71 NE7       30.25F
RACINE         CLOUDY    46  40  79 N17       30.24F
BURLINGTON     CLOUDY    51  44  76 NE10      30.21F
KENOSHA        FAIR      48  41  76 NE12      30.23S
FOND DU LAC    FAIR      58  47  66 E6        30.22F
SHEBOYGAN      CLOUDY    51  42  71 NE9       30.23F
WEST BEND      CLOUDY    57  46  67 NE5       30.23F
JUNEAU         PTSUNNY   57  47  69 NE8       30.23F
$$

LSZ147-162-202100-
LAKE SUPERIOR

STATION/POSITION TIME  TEMP    WIND        PRES    WAVE
                       AIR SEA DIR/SP/G            HT/PER
                 (UTC) (F)     (DEG/KT/KT) (MB)    (FT/S)
W MID LAKE BUOY  1950   39 36  210/  6/  6 1024.9F   1
DEVILS ISLAND    2000   60     210/  4/  6 1024.3F
SAXON HARBOR     1940   49      40/  3/  3 1024.4F
$$

LMZ867-665-643>646-202100-
LAKE MICHIGAN

STATION/POSITION TIME  TEMP    WIND        PRES    WAVE
                       AIR SEA DIR/SP/G            HT/PER
                 (UTC) (F)     (DEG/KT/KT) (MB)    (FT/S)
NORTHPORT PIER   1940   46                 1024.0F
KEWAUNEE LAKESHO 1948   48      40/  8/ 11 1023.9F
SHEBOYGAN LAKESH 2000   42      10/  9/ 10 1024.4F
PORT WASHINGTON  1940   46      50/ 11/ 14 1025.1F
MILWAUKEE LAKESH 1950   43      20/ 10/ 12   N/A
KENOSHA   LAKESH 2000   43                 1023.7
$$

TC  - TEMPERATURE IN CELSIUS
VSB - VISIBILITY IN STATUTE MILES
WCI - WIND CHILL INDEX
HX  - HEAT INDEX




USA.gov is the U.S. government's official web portal to all federal, state and local government web resources and services.